Showing default

3CAT-4, 60236

Orbit data source: Space-Track

3CAT-4, 60236 is a payload satellite owned by UPC (ES) in LEO that was launched on Tue, 09 Jul 2024 UTC via an ARIANE 62 launch vehicle from the French Guiana (FRGUI). Payload-class satellites include a variety of spacecraft equipped with specific instruments for various scientific and technological missions. These include communications satellites like Starlink; space stations such as the ISS; scientific satellites like the Hubble; Earth observation satellites from companies like Planet Labs, Umbra, and HawkEye 360; GPS; miniature CubeSats for education and research; and military/defense satellites.

Loading next visibility...
Identifier
60236, 2024-128B
Orbit
LEO
Country
Flag of ESES / SPN
Related business
Manufacturer
UPC
Mission
Non-operational Amateur Technology
Bus & Motor
CUBESAT 1U, Unknown motor
Mass
1 kg wet, 1 kg dry
Launch date (UTC)
2024-07-09 (1 year ago)
Launch vehicle
ARIANE 62
Launch site
French Guiana (FRGUI)
Object type
Payload
Rocket body
Debris
Shape & HBR
Box + 1 Rod, 0.3 m
Radar Cross Section
0.015 m², Small (<0.1 m²)

Expand to show TLE details & history
Last TLE update: 1 day ago

TLE from 1 day ago
0 3CAT-4
1 60236U 24128B   25259.99619741  .00002457  00000-0  20317-3 0  9997
2 60236  61.9920  96.5458 0058540  79.4472 281.3205 15.00585054 65081
Epoch: 2025-09-16T23:54Z
TLE epoch observation values (Epoch: 2025-09-16T23:54:31.456Z)
Latitude
-0.00004°
Longitude
101.73622°
Altitude
559.11 km
Speed
7.587 km/s
True Right ascension
06h 26m 10s
True Declination
0° 00' 00"
Sunlit
Object was in daylight at epoch
Visualization orbit readout
Latitude
Unknown
Longitude
Unknown
Altitude
Unknown
Speed
Unknown
Apparent Right ascension
Unknown
Apparent Declination
Unknown
Sunlit
N/A
Visualization observer readout
Local Sidereal Time
19:12:31
Azimuth
Unknown
Elevation
Unknown
Doppler factor
Unknown
Orbital elements
Apogee altitude
604.661 km
Perigee altitude
523.383 km
Semi-major axis
6,942.159 km
Eccentricity
0.00585
Inclination
61.992°
RAAN
96.5458°
Arg. of periapsis
79.4472°
True anomaly
280.6618°
Mean anomaly
281.3205°
Eccentric anomaly
280.99124°
Mean motion
3.75233 °/min
Orbital period
95.94 mins
BSTAR
0.00020317
Loading maneuver chart data...
Computing Atmospheric mass density...
Loading historical data...
Loading historical data...
Loading historical data...
Loading historical data...
Loading historical data...
Loading historical data...
Loading historical data...

Documentation

Showing up to 5 results
|